Terug naar catalogus

COSMOS 1251

ActiefMilitairLEO
NORAD 12321·PAYLOAD·🇷🇺 Russia

Gelanceerd Mar 6, 1981 vanaf Plesetsk Cosmodrome

Loading…

Volgende Passages (komende 24 uur)

TLE

VersSource: Space-Track

Epoch: Sep 14, 2026, 14:14 UTC

1 12321U 81022B   26257.59323247  .00000001  00000-0  10075-3 0  9996
2 12321  74.0298 304.5361 0044386  13.8589  59.1726 12.56491465 88157

Volg COSMOS 1251 in realtime met AllMySat

Download on the App Store